Tracking 26933 objects as of 5-Feb-2023
HD Live streaming from Space Station
objects crossing your sky now

ECHOSTAR 6

Track ECHOSTAR 6 now!
ECHOSTAR 6 is classified as:


NORAD ID: 26402
Int'l Code: 2000-038A
Perigee: 36,191.9 km
Apogee: 36,237.8 km
Inclination: 8.2 °
Period: 1,457.7 minutes
Semi major axis: 42585 km
RCS: 25.1188 m2 (large)
Launch date: July 14, 2000
Source: United States (US)
Launch site: AIR FORCE EASTERN TEST RANGE (AFETR)

CONUS, Hawaii, Alaska and Puerto Rico; 32 Ku-band transponders
Your satellite tracking list
Your tracking list is empty




NASA's NSSDC Master Catalog

Two Line Element Set (TLE):
1 26402U 00038A   23035.66553844  .00000054  00000-0  00000-0 0  9998
2 26402   8.2456  56.3191 0005392 289.6417  92.2842  0.98788241 82376
Source of the keplerian elements: AFSPC